Vorticity
7 9 10 11 11 13 11 7 7 7 6 5 6 21 16 9 11 20 15 7 4 4 9 14 9 5 8 12 -2 -1 16 11 14 18 18 30 6 -11 -7 35 23 -22 11 -11 21 10 9
8 8 7 8 10 13 10 7 7 7 6 5 6 24 16 8 11 19 14 6 5 6 12 12 4 7 10 9 7 7 9 21 10 35 13 8 -11 -20 37 34 21 29 -1 3 7 22 11
6 6 6 9 11 13 10 8 7 7 6 6 6 25 16 6 11 17 14 6 8 9 11 11 4 10 8 2 6 15 8 24 16 28 35 33 12 24 18 8 -19 -8 12 1 15 22 8
10 9 8 11 13 13 10 8 8 6 7 3 11 22 15 8 10 13 13 10 7 11 12 2 9 11 4 2 10 14 8 21 20 17 19 3 42 34 14 -13 43 58 12 -9 3 11 24
4 6 10 12 14 13 10 9 8 6 8 -0 11 17 17 13 9 10 12 12 7 8 11 17 -5 19 1 6 10 14 10 14 25 7 22 20 15 13 37 -16 12 11 23 -3 8 8 24
2 5 10 11 12 12 10 10 9 7 8 3 11 17 18 12 10 10 10 7 11 -1 16 16 10 15 -6 9 8 11 11 24 20 8 9 26 12 1 4 19 -4 49 16 13 3 15 19
3 3 3 11 11 13 12 11 9 8 7 2 12 21 15 7 16 12 12 10 5 2 19 33 33 7 7 9 8 11 21 15 16 2 13 12 31 8 -10 26 20 27 -4 -8 12 11 3
3 3 3 4 11 13 14 14 11 8 6 5 11 21 11 9 11 10 18 16 8 18 -6 18 22 32 16 12 10 12 17 8 4 17 20 6 -1 29 -25 24 35 5 17 -1 6 14 10
3 3 3 3 5 11 14 16 13 11 8 6 8 16 12 15 8 8 14 17 15 8 -3 23 9 11 15 11 -1 16 24 5 20 4 19 21 18 -1 14 6 25 8 1 5 -9 27 8
3 3 3 3 3 1 7 15 17 12 10 7 4 16 8 18 15 6 13 19 18 4 -0 -11 26 10 -5 19 18 34 -28 12 13 15 14 11 -1 -3 41 32 15 18 6 3 12 2 -1
3 4 3 3 2 3 4 9 19 14 10 7 1 17 8 7 16 15 5 -1 22 17 -0 10 3 23 32 22 9 20 30 7 7 18 1 8 -1 22 41 5 4 37 2 6 21 -2 -7
3 3 4 4 3 2 3 5 16 18 12 7 7 9 14 9 19 11 18 14 -3 19 -7 8 15 -2 13 26 17 -11 6 10 16 27 16 11 26 -6 37 4 51 -1 11 14 16 -0 2
3 3 3 3 4 4 3 3 8 19 15 12 8 1 17 6 6 17 13 19 -1 20 -1 2 9 11 -9 9 4 19 8 1 -5 -9 2 13 7 45 -23 26 27 5 2 -4 -2 2 12
3 3 3 3 3 4 6 5 4 12 18 16 7 12 8 18 6 15 10 2 10 6 28 13 1 3 13 4 19 3 18 21 7 36 -5 12 1 3 -10 17 6 13 -14 -3 7 6 24
3 3 3 3 3 3 5 6 5 5 14 17 12 4 3 22 14 2 17 14 21 -2 3 6 -2 6 7 14 8 -1 14 10 -1 -15 16 -1 18 7 1 7 2 16 -4 -7 -0 19 12
3 2 3 3 3 3 4 5 5 5 9 18 26 14 9 1 19 14 21 20 10 2 11 9 6 5 12 3 9 8 16 14 -12 18 1 28 4 25 15 3 -4 4 2 1 13 9 9
4 4 3 3 4 4 4 5 6 6 6 9 17 14 17 15 10 16 12 12 9 9 2 4 9 9 4 -1 7 10 12 16 6 8 13 -9 17 23 -3 1 -8 7 9 -6 -3 -1 9
5 4 4 4 4 4 5 5 6 7 7 11 14 21 15 15 18 5 12 8 8 7 11 4 1 5 2 -0 7 16 15 6 15 4 17 -14 22 9 11 1 1 14 14 -10 -25 23 -0
7 6 6 5 5 5 5 6 6 7 7 6 8 11 2 18 11 7 8 12 13 6 4 5 1 5 7 3 11 25 -0 28 14 18 -1 14 32 -2 13 28 5 -0 9 23 -6 -6 12
7 7 7 6 6 6 6 6 7 9 8 9 14 12 21 15 16 10 9 8 8 12 14 9 10 9 5 5 13 16 1 13 11 2 -8 -3 16 -10 -2 24 -4 4 1 12 -2 2 3
8 8 7 7 8 7 7 7 6 7 10 12 8 1 4 -3 12 19 11 7 7 10 6 18 16 11 6 4 9 11 14 12 6 8 9 -1 15 -10 3 3 23 7 8 12 7 4 -6
8 8 8 7 7 7 8 7 9 7 7 12 10 7 8 3 1 10 15 9 8 8 6 6 5 12 15 15 6 2 14 10 5 12 4 3 6 25 12 12 6 12 4 5 13 6 13
9 8 9 7 8 7 9 7 8 8 8 9 7 6 3 -7 5 11 7 12 10 10 16 7 8 9 8 8 10 13 12 9 -2 9 22 -2 7 13 26 16 9 36 11 3 3 -4 3
9 1 2 6 8 8 8 8 9 9 8 10 10 7 8 5 7 10 11 8 12 12 8 7 8 7 8 7 10 8 8 11 10 8 7 4 21 3 10 21 11 13 15 36 18 2 5
6 8 5 10 9 9 -1 12 -2 4 6 13 13 6 8 -2 10 11 4 3 11 16 14 9 12 10 8 7 14 25 28 31 21 11 8 8 8 4 -6 15 -18 -2 21 8 4 8 26
27 26 4 -0 -0 1 9 -4 -1 1 8 10 11 8 8 3 15 -2 12 5 7 9 19 19 16 8 9 9 15 13 5 4 16 13 44 8 11 -13 23 6 -0 22 31 28 18 23 17
4 5 17 37 15 3 3 5 2 17 7 13 11 11 12 6 1 16 3 7 7 12 19 19 22 16 10 16 14 16 15 -5 6 6 17 19 20 3 3 -1 25 11 -8 -4 13 1 33
23 18 7 11 12 24 28 30 18 26 6 -2 10 6 7 6 -3 10 8 17 -1 12 -2 2 6 26 13 18 10 13 13 8 16 -2 -0 3 17 21 17 3 16 31 21 3 10 5 4
4 10 22 23 10 4 6 6 17 19 21 22 9 5 12 2 -23 -8 -10 -12 8 11 8 2 -8 14 -0 -2 -7 11 -4 -4 8 4 23 9 -17 -12 -27 15 -6 18 16 13 24 18 12
Height
3110 3104 3098 3091 3085 3079 3074 3067 3060 3054 3048 3042 3034 3026 3020 3015 3009 3005 3003 3000 2999 2996 2994 2992 2990 2987 2986 2985 2985 2983 2982 2981 2981 2983 2989 2994 3000 3008 3015 3017 3031 3042 3053 3064 3069 3075 3083
3109 3104 3098 3091 3084 3078 3072 3066 3059 3053 3047 3040 3032 3024 3019 3014 3009 3005 3002 3000 2998 2997 2994 2991 2991 2988 2987 2987 2984 2983 2981 2979 2979 2978 2984 2990 2997 3006 3014 3023 3032 3041 3052 3059 3066 3072 3081
3109 3103 3097 3091 3084 3077 3071 3065 3059 3053 3046 3039 3031 3023 3018 3014 3009 3005 3002 3000 2998 2996 2995 2992 2990 2989 2987 2988 2984 2982 2980 2978 2978 2979 2985 2991 2998 3003 3005 3016 3023 3040 3049 3057 3064 3071 3079
3110 3104 3097 3091 3083 3076 3071 3064 3059 3053 3046 3039 3031 3023 3018 3013 3009 3005 3003 3000 2998 2996 2995 2993 2991 2989 2987 2986 2984 2982 2981 2979 2979 2980 2987 2992 2998 3005 3007 3017 3022 3024 3043 3051 3062 3069 3076
3111 3105 3098 3092 3084 3077 3071 3065 3059 3053 3046 3039 3031 3023 3018 3013 3009 3005 3003 3001 2998 2997 2995 2993 2991 2988 2988 2986 2983 2983 2982 2981 2980 2984 2987 2987 2998 3004 3010 3016 3019 3019 3031 3048 3061 3067 3073
3112 3106 3099 3092 3085 3079 3072 3066 3060 3054 3046 3040 3032 3024 3018 3014 3009 3006 3004 3002 2999 2998 2994 2991 2990 2991 2988 2988 2984 2983 2981 2981 2983 2986 2987 2988 2996 3004 3011 3019 3021 3027 3036 3048 3056 3065 3072
3113 3107 3101 3094 3087 3080 3073 3067 3061 3054 3047 3041 3033 3025 3018 3014 3010 3007 3004 3002 3002 3000 2995 2990 2988 2987 2987 2987 2985 2984 2982 2983 2983 2986 2990 2993 3000 3005 3010 3018 3024 3033 3041 3049 3059 3064 3071
3115 3109 3103 3096 3089 3082 3075 3068 3062 3055 3049 3043 3035 3026 3021 3015 3012 3008 3004 3004 3002 3002 2998 2993 2991 2989 2989 2986 2986 2986 2986 2987 2989 2989 2996 3002 3008 3014 3018 3020 3025 3038 3042 3052 3061 3064 3073
3116 3110 3104 3098 3092 3085 3078 3070 3063 3057 3050 3045 3038 3029 3023 3018 3014 3010 3006 3005 3003 3002 3001 2998 2995 2993 2992 2990 2988 2987 2989 2990 2993 2995 3002 3002 3012 3019 3023 3025 3029 3035 3042 3049 3055 3064 3074
3115 3111 3106 3100 3093 3087 3080 3072 3064 3059 3052 3047 3041 3034 3027 3021 3020 3014 3009 3006 3003 3003 3003 3008 3000 2998 2996 2994 2993 2991 2993 2995 2995 3000 2999 3011 3019 3020 3022 3027 3032 3037 3046 3053 3059 3065 3070
3115 3112 3108 3102 3095 3089 3082 3074 3067 3060 3054 3048 3042 3037 3030 3022 3022 3017 3015 3010 3007 3006 3008 3014 3006 3003 2999 2998 2999 2998 2997 2998 3000 3005 3013 3018 3015 3020 3019 3028 3039 3042 3046 3054 3061 3066 3071
3114 3111 3108 3103 3096 3089 3083 3076 3068 3062 3056 3050 3043 3038 3033 3028 3025 3020 3017 3013 3014 3012 3018 3020 3014 3012 3009 3004 3005 3004 3003 3002 3005 3010 3017 3019 3021 3022 3026 3032 3037 3045 3051 3058 3066 3068 3072
3114 3110 3106 3102 3098 3091 3085 3078 3071 3064 3058 3052 3046 3040 3036 3031 3029 3024 3021 3018 3018 3019 3025 3027 3022 3018 3016 3014 3012 3009 3008 3007 3010 3019 3021 3022 3025 3029 3031 3038 3042 3048 3053 3060 3068 3072 3073
3112 3108 3105 3101 3096 3092 3086 3080 3073 3066 3059 3054 3049 3043 3039 3035 3031 3029 3025 3023 3024 3029 3026 3028 3026 3023 3019 3018 3018 3018 3016 3014 3016 3018 3021 3024 3032 3034 3036 3043 3041 3047 3050 3056 3062 3067 3067
3110 3107 3103 3099 3095 3091 3086 3080 3075 3068 3061 3055 3050 3046 3040 3037 3034 3031 3029 3024 3030 3032 3030 3028 3028 3029 3026 3024 3023 3022 3023 3023 3023 3023 3026 3030 3033 3032 3035 3038 3047 3050 3051 3056 3059 3062 3065
3108 3104 3101 3097 3093 3089 3086 3081 3075 3069 3063 3057 3051 3047 3042 3039 3036 3034 3032 3026 3030 3031 3031 3030 3027 3025 3027 3027 3027 3027 3026 3028 3028 3027 3028 3031 3035 3037 3039 3042 3046 3047 3053 3056 3056 3061 3061
3104 3101 3097 3094 3091 3088 3084 3079 3075 3069 3064 3058 3053 3047 3044 3040 3038 3036 3032 3030 3031 3031 3031 3032 3030 3027 3024 3024 3026 3026 3028 3029 3028 3028 3028 3030 3034 3038 3040 3040 3044 3046 3047 3050 3054 3056 3056
3098 3096 3093 3090 3087 3084 3081 3078 3074 3069 3064 3059 3054 3050 3046 3042 3041 3036 3035 3033 3032 3031 3030 3030 3030 3030 3028 3026 3023 3023 3025 3026 3028 3028 3029 3031 3032 3035 3039 3040 3040 3040 3046 3048 3047 3049 3051
3092 3090 3088 3085 3083 3079 3077 3075 3071 3068 3063 3059 3055 3051 3047 3043 3040 3037 3036 3035 3034 3032 3031 3030 3029 3029 3028 3028 3028 3024 3024 3026 3027 3029 3030 3031 3033 3038 3041 3041 3038 3039 3041 3042 3046 3047 3046
3086 3084 3082 3080 3078 3075 3072 3070 3067 3065 3062 3058 3054 3051 3047 3044 3040 3038 3036 3034 3033 3032 3030 3028 3027 3026 3026 3025 3025 3026 3026 3026 3027 3029 3030 3032 3032 3033 3032 3032 3036 3037 3038 3040 3043 3043 3044
3079 3077 3075 3073 3073 3071 3068 3066 3063 3060 3059 3057 3053 3050 3046 3043 3040 3037 3036 3034 3032 3030 3029 3028 3026 3025 3025 3024 3024 3023 3024 3025 3026 3027 3028 3029 3029 3030 3029 3030 3032 3033 3036 3037 3039 3042 3041
3070 3069 3068 3066 3065 3063 3063 3060 3059 3056 3055 3053 3051 3048 3043 3040 3037 3036 3034 3032 3030 3028 3028 3026 3025 3023 3022 3022 3022 3021 3021 3022 3022 3024 3025 3026 3027 3026 3028 3028 3029 3029 3029 3031 3032 3034 3034
3062 3061 3060 3058 3057 3056 3055 3054 3054 3051 3051 3049 3046 3043 3041 3038 3036 3034 3031 3028 3027 3026 3026 3024 3023 3022 3021 3020 3018 3017 3017 3018 3019 3020 3020 3023 3023 3025 3023 3023 3024 3023 3018 3021 3023 3023 3025
3053 3052 3051 3051 3050 3050 3048 3047 3047 3046 3045 3044 3042 3040 3037 3035 3032 3031 3029 3025 3023 3022 3021 3021 3019 3018 3018 3017 3016 3015 3014 3013 3013 3014 3015 3016 3018 3020 3020 3020 3017 3010 3010 3012 3013 3014 3017
3043 3043 3043 3042 3042 3041 3040 3040 3038 3039 3038 3037 3036 3035 3031 3029 3028 3026 3025 3023 3020 3017 3016 3015 3014 3015 3014 3014 3013 3011 3009 3009 3007 3007 3009 3011 3012 3013 3014 3013 3008 3004 3003 3005 3005 3005 3008
3029 3029 3030 3032 3033 3032 3032 3031 3030 3030 3031 3029 3028 3027 3026 3024 3023 3021 3019 3019 3017 3014 3012 3011 3010 3009 3010 3009 3009 3008 3007 3004 3003 3002 3001 3004 3007 3010 3009 3008 3001 2995 2996 2997 3000 2998 3000
3020 3019 3019 3018 3019 3020 3021 3020 3020 3020 3021 3021 3021 3020 3020 3018 3018 3016 3015 3013 3013 3011 3009 3008 3007 3006 3006 3005 3005 3005 3003 3002 3000 2998 2996 2997 2999 3001 3001 3001 2992 2991 2992 2993 2996 2995 2990
3012 3011 3010 3008 3008 3008 3008 3008 3008 3010 3012 3011 3012 3012 3012 3010 3011 3010 3008 3008 3007 3006 3006 3006 3005 3002 3002 3002 3002 3000 2998 2996 2994 2991 2992 2992 2992 2991 2995 2996 2989 2982 2984 2987 2986 2985 2987
3004 3002 3001 3001 3000 3000 3000 3000 3000 3000 3001 3000 3002 3003 3002 3002 3003 3002 3001 3001 3001 3001 3000 2999 2999 2998 2998 2997 2998 2996 2994 2991 2990 2988 2985 2988 2984 2982 2984 2979 2979 2979 2980 2981 2982 2982 2983